SKYSAT-C7

Last updated on Thu Oct 30 2025 00:02:32 GMT+0000 (Coordinated Universal Time)

1 42991U 17068E 25302.30739241 .00016822 00000+0 54425-3 0 9999 2 42991 97.4255 73.2273 0004590 194.9765 165.1341 15.32118484446970
UTC large
Height (km)
Speed (km/s)
/
Latitude / Longitude
Inclination (degrees)
Orbital Period (minutes)
Azimuth
Elevation
Range (km)
Doppler Factor

Next 0 passes for location: London (51.5072 / 0.1276)

Sorry there are no passes over London.